Le nostre stazioni meteo in Italia

Pubblicità
Il mio iltempo24.it
Lulea/Kallax, Svezia (2186): Temperatura & dewpoint: 17.10.2017 04:00:00 - 23.10.2017 04:00:00 (CEST)Lulea/Kallax, Svezia (2186): velocità del vento & gusts: 17.10.2017 04:00:00 - 23.10.2017 04:00:00 (CEST)Lulea/Kallax, Svezia (2186): direzione del vento: 17.10.2017 04:00:00 - 23.10.2017 04:00:00 (CEST)Lulea/Kallax, Svezia (2186): reduced air pressure: 17.10.2017 04:00:00 - 23.10.2017 04:00:00 (CEST)Lulea/Kallax, Svezia (2186): visibility: 17.10.2017 04:00:00 - 23.10.2017 04:00:00 (CEST)Lulea/Kallax, Svezia (2186): precipitazioni: 17.10.2017 04:00:00 - 23.10.2017 04:00:00 (CEST)
Data & Tempo tt [°C] td [°C] ff [km/h] ff [kn] fx [km/h] fx [kn] dd ppp [hPa] vv [km] rr [mm]
23.10.2017 04:00:00 -5,3 -6,0 8 4 14 8 N 1028,7 10 0,0
23.10.2017 03:00:00 -3,9 -4,7 9 5 18 10 NNO 1028,5 10 0,0
23.10.2017 02:00:00 -3,2 -3,7 9 5 18 10 NNO 1028,2 10 0,0
23.10.2017 01:00:00 -3,8 -4,3 8 4 11 6 N 1027,6 10 0,0
23.10.2017 00:00:00 -1,9 -2,7 8 4 11 6 N 1027,3 10 0,0
22.10.2017 23:00:00 -1,4 -2,2 8 4 11 6 N 1026,7 10 0,0
22.10.2017 22:00:00 -1,1 -2,2 5 3 11 6 N 1026,2 10 0,0
22.10.2017 21:00:00 0,0 -1,4 8 4 14 8 NNE 1025,7 10 0,0
22.10.2017 20:00:00 1,2 -1,2 8 4 14 8 NNE 1025,1 10 0,0
22.10.2017 19:00:00 1,3 -1,1 8 4 14 8 NNE 1024,5 10 0,0
22.10.2017 18:00:00 1,5 -0,6 8 4 14 8 NNE 1024,0 10 0,0
22.10.2017 17:00:00 1,4 -0,5 8 4 14 8 N 1023,7 10 0,0
22.10.2017 16:00:00 1,5 -0,6 8 4 14 8 N 1023,2 10 0,0
22.10.2017 15:00:00 1,4 -0,8 8 4 14 8 NNO 1022,8 10 0,0
22.10.2017 14:00:00 0,4 -1,8 11 6 18 10 N 1022,4 10 0,0
22.10.2017 13:00:00 0,5 -2,1 11 6 18 10 N 1022,3 10 0,0
22.10.2017 12:00:00 -0,6 -2,8 11 6 18 10 N 1022,0 10 0,0
22.10.2017 11:00:00 -1,3 -3,2 11 6 18 10 N 1021,7 10 0,0
22.10.2017 10:00:00 -1,9 -3,6 9 5 18 10 NNO 1021,5 10 0,0
22.10.2017 09:00:00 -2,9 -4,6 13 7 22 12 N 1021,4 10 0,0
22.10.2017 08:00:00 -4,7 -5,7 13 7 18 10 NNO 1021,1 10 0,0
22.10.2017 07:00:00 -5,5 -6,5 9 5 14 8 NNO 1021,0 10 0,0
22.10.2017 06:00:00 -4,9 -5,9 8 4 11 6 NO 1021,0 10 0,0
22.10.2017 05:00:00 -4,2 -5,4 11 6 14 8 NNO 1021,2 10 0,0
22.10.2017 04:00:00 -4,7 -5,8 9 5 14 8 NNO 1021,2 10 0,0
22.10.2017 03:00:00 -4,4 -5,6 5 3 14 8 NNO 1021,1 10 0,0
22.10.2017 02:00:00 -4,1 -5,5 11 6 18 10 NNO 1021,2 10 0,0
22.10.2017 01:00:00 -3,4 -4,8 4 2 11 6 NNO 1021,5 10 0,0
22.10.2017 00:00:00 -3,7 -4,7 5 3 11 6 NO 1021,7 10 0,0
21.10.2017 23:00:00 -3,2 -4,2 5 3 7 4 NO 1021,7 10 0,0
21.10.2017 22:00:00 -3,2 -4,2 4 2 7 4 O 1021,7 10 0,0
21.10.2017 21:00:00 -2,6 -4,2 5 3 7 4 NO 1021,8 10 0,0
21.10.2017 20:00:00 -4,0 -4,7 5 3 7 4 ONO 1022,0 10 0,0
21.10.2017 19:00:00 -3,3 -4,6 8 4 7 4 NO 1022,0 10 0,0
21.10.2017 18:00:00 -3,0 -4,3 5 3 7 4 O 1022,1 10 0,0
21.10.2017 17:00:00 -1,6 -3,6 2 1 7 4 O 1022,4 10 0,0
21.10.2017 16:00:00 0,4 -3,3 9 5 22 12 NO 1022,6 10 0,0
21.10.2017 15:00:00 1,6 -2,7 13 7 22 12 ONO 1022,7 10 0,0
21.10.2017 14:00:00 1,3 -2,8 13 7 22 12 ONO 1023,1 10 0,0
21.10.2017 13:00:00 0,6 -3,0 15 8 22 12 ONO 1023,6 10 0,0
21.10.2017 12:00:00 -0,4 -2,9 11 6 25 14 O 1024,1 10 0,0
21.10.2017 11:00:00 -1,5 -3,4 11 6 22 12 ONO 1024,4 10 0,0
21.10.2017 10:00:00 -2,5 -3,8 9 5 18 10 O 1024,8 10 0,0
21.10.2017 09:00:00 -3,0 -4,1 8 4 22 12 NO 1024,8 10 0,0
21.10.2017 08:00:00 -3,3 -4,3 13 7 22 12 ONO 1024,9 10 0,0
21.10.2017 07:00:00 -4,0 -5,0 8 4 14 8 O 1025,0 10 0,0
21.10.2017 06:00:00 -3,8 -4,8 5 3 11 6 O 1025,2 10 0,0
21.10.2017 05:00:00 -4,6 -5,1 2 1 7 4 O 1025,5 10 0,0
21.10.2017 04:00:00 -4,0 -4,8 2 1 11 6 O 1025,8 10 0,0
21.10.2017 03:00:00 -2,9 -4,2 4 2 7 4 O 1026,2 10 0,0
21.10.2017 02:00:00 -3,0 -4,0 2 1 7 4 ONO 1026,4 10 0,0
21.10.2017 01:00:00 -3,2 -4,2 4 2 7 4 NNO 1026,8 10 0,0
21.10.2017 00:00:00 -2,1 -3,7 8 4 11 6 ONO 1026,9 10 0,0
20.10.2017 23:00:00 -0,7 -3,1 8 4 11 6 O 1027,0 10 0,0
20.10.2017 22:00:00 0,2 -2,5 5 3 7 4 ONO 1027,2 10 0,0
20.10.2017 21:00:00 0,5 -2,4 8 4 11 6 NO 1027,3 10 0,0
20.10.2017 20:00:00 0,9 -2,3 5 3 14 8 ONO 1027,0 10 0,0
20.10.2017 19:00:00 0,8 -2,6 9 5 11 6 NO 1026,9 10 0,0
20.10.2017 18:00:00 1,5 -2,6 5 3 14 8 N 1026,6 10 0,0
20.10.2017 17:00:00 1,9 -2,1 9 5 14 8 NNO 1026,5 10 0,0
20.10.2017 16:00:00 2,2 -1,6 9 5 18 10 N 1026,3 10 0,0
20.10.2017 15:00:00 2,3 -1,0 11 6 18 10 N 1026,2 10 0,0
20.10.2017 14:00:00 2,5 -0,7 9 5 25 14 NNE 1026,0 10 0,0
20.10.2017 13:00:00 2,6 -0,7 13 7 25 14 NNE 1025,5 10 0,0
20.10.2017 12:00:00 2,3 0,0 11 6 25 14 N 1025,1 10 0,0
20.10.2017 11:00:00 2,0 0,2 13 7 25 14 N 1024,5 10 0,0
20.10.2017 10:00:00 1,5 0,2 11 6 29 16 N 1023,8 10 0,0
20.10.2017 09:00:00 1,0 0,0 15 8 - - NNO - 10 -
20.10.2017 08:00:00 1,4 0,1 16 9 25 14 NNO 1022,2 10 0,0
20.10.2017 07:00:00 1,5 0,5 15 8 25 14 NNO 1021,8 10 0,0
20.10.2017 06:00:00 1,3 0,1 14 8 22 12 NNO 1021,2 50 0,0
20.10.2017 05:00:00 1,2 -0,1 15 8 25 14 NNO 1020,9 10 0,0
20.10.2017 04:00:00 0,1 -0,9 13 7 18 10 NNO 1020,6 10 0,0
20.10.2017 03:00:00 0,3 -0,7 9 5 14 8 NNO 1020,2 10 0,0
20.10.2017 02:00:00 0,6 -0,3 5 3 7 4 NO 1019,9 10 0,0
20.10.2017 01:00:00 -0,6 -1,0 5 3 7 4 NO 1019,6 10 0,0
20.10.2017 00:00:00 -1,1 -1,4 4 2 7 4 NO 1019,4 10 0,0
19.10.2017 23:00:00 -0,4 -0,8 2 1 14 8 NNO 1019,3 10 0,0
19.10.2017 22:00:00 -0,1 -0,5 4 2 14 8 - 1019,3 10 0,0
19.10.2017 21:00:00 1,5 0,9 2 1 14 8 SO 1018,9 10 0,0
19.10.2017 20:00:00 1,6 1,0 0 0 4 2 N 1018,8 10 0,0
19.10.2017 19:00:00 1,5 0,9 2 1 7 4 - 1018,7 10 0,0
19.10.2017 18:00:00 1,9 1,0 0 0 4 2 N 1018,6 10 0,0
19.10.2017 17:00:00 2,4 1,4 0 0 7 4 N 1018,6 10 0,0
19.10.2017 16:00:00 3,4 1,6 4 2 7 4 N 1018,5 10 0,0
19.10.2017 15:00:00 3,5 1,2 5 3 7 4 ONO 1018,1 10 0,0
19.10.2017 14:00:00 4,2 1,9 5 3 11 6 NO 1017,9 10 0,0
19.10.2017 13:00:00 3,9 1,8 8 4 14 8 N 1017,4 10 0,0
19.10.2017 12:00:00 3,3 1,3 9 5 18 10 N 1017,0 10 0,0
19.10.2017 11:00:00 3,2 1,4 11 6 22 12 N 1016,4 10 0,0
19.10.2017 10:00:00 2,8 1,0 9 5 - - NNO 1015,9 10 0,0
19.10.2017 09:00:00 2,5 1,0 9 5 18 10 NNO 1015,1 10 0,0
19.10.2017 08:00:00 2,2 1,0 11 6 14 8 NNO 1014,4 10 0,0
19.10.2017 07:00:00 1,8 0,6 11 6 14 8 NNO 1013,8 10 0,1
19.10.2017 06:00:00 2,3 0,8 9 5 18 10 NNO 1013,1 10 0,0
19.10.2017 05:00:00 1,8 0,9 11 6 14 8 NNO 1012,6 10 0,0
19.10.2017 04:00:00 2,5 0,7 11 6 22 12 NNO 1011,9 10 0,0
19.10.2017 03:00:00 2,9 1,0 15 8 25 14 NNO 1011,3 10 0,0
19.10.2017 02:00:00 2,4 1,1 15 8 25 14 NNO 1010,8 10 0,0
19.10.2017 01:00:00 2,1 0,8 18 10 22 12 NO 1010,1 10 0,0
19.10.2017 00:00:00 -0,2 -0,9 11 6 18 10 NNO 1009,6 10 0,0
18.10.2017 23:00:00 -0,4 -1,2 13 7 18 10 NNO 1009,1 10 0,0
18.10.2017 22:00:00 0,7 0,0 13 7 18 10 NNO 1008,4 10 0,0
18.10.2017 21:00:00 2,4 0,9 11 6 18 10 NNO 1007,6 10 0,0
18.10.2017 20:00:00 0,7 0,1 5 3 11 6 NO 1006,9 10 0,0
18.10.2017 19:00:00 1,1 0,2 11 6 14 8 NO 1006,3 10 0,0
18.10.2017 18:00:00 2,6 1,1 13 7 14 8 ONO 1005,7 10 0,0
18.10.2017 17:00:00 2,7 1,1 11 6 22 12 ONO 1005,1 10 0,0
18.10.2017 16:00:00 2,3 1,1 15 8 22 12 NO 1004,6 10 0,0
18.10.2017 15:00:00 2,2 1,2 16 9 22 12 NNO 1004,0 10 0,0
18.10.2017 14:00:00 2,1 1,5 16 9 22 12 NNO 1003,2 10 0,0
18.10.2017 13:00:00 1,7 1,4 15 8 18 10 NO 1002,4 10 0,0
18.10.2017 12:00:00 0,8 0,7 11 6 18 10 NNO 1001,6 4,0 0,0
18.10.2017 11:00:00 0,0 -0,3 9 5 18 10 NNO 1000,8 0,9 0,0
18.10.2017 10:00:00 -0,6 -0,9 9 5 18 10 N 1000,0 0,4 0,0
18.10.2017 09:00:00 -0,4 -0,8 9 5 18 10 NNO 999,3 0,7 0,0
18.10.2017 08:00:00 0,0 -0,7 9 5 14 8 N 998,6 10 0,0
18.10.2017 07:00:00 0,3 -0,3 9 5 14 8 NNO 998,0 10 0,0
18.10.2017 06:00:00 -0,6 -1,0 9 5 14 8 NNO 997,8 10 0,0
18.10.2017 05:00:00 -0,2 -0,6 9 5 14 8 NNO 997,6 10 0,0
18.10.2017 04:00:00 -1,3 -1,7 8 4 11 6 NNO 997,5 10 0,0
18.10.2017 03:00:00 -1,0 -1,4 4 2 7 4 NNO 997,5 10 0,0
18.10.2017 02:00:00 -1,5 -2,1 8 4 7 4 NNO 997,6 10 0,0
18.10.2017 01:00:00 -1,3 -1,9 4 2 7 4 NO 997,8 10 0,0
18.10.2017 00:00:00 -1,4 -1,8 4 2 7 4 ONO 997,9 10 0,0
17.10.2017 23:00:00 -0,9 -1,5 2 1 7 4 NO 998,1 10 0,0
17.10.2017 22:00:00 -0,2 -1,0 2 1 4 2 - 998,4 10 0,0
17.10.2017 21:00:00 0,7 -0,2 0 0 4 2 N 998,4 10 0,0
17.10.2017 20:00:00 2,5 0,6 0 0 14 8 N 998,4 10 0,0
17.10.2017 19:00:00 3,0 1,4 8 4 14 8 O 998,7 10 0,0
17.10.2017 18:00:00 5,2 2,0 8 4 7 4 O 999,2 10 0,0
17.10.2017 17:00:00 6,6 1,9 8 4 14 8 O 999,9 10 0,0
17.10.2017 16:00:00 8,9 2,2 9 5 22 12 O 1000,5 10 0,0
17.10.2017 15:00:00 9,3 2,2 13 7 22 12 O 1001,0 10 0,0
17.10.2017 14:00:00 9,2 2,1 13 7 22 12 O 1001,2 10 0,0
17.10.2017 13:00:00 9,1 2,2 18 10 25 14 O 1001,5 10 0,0
17.10.2017 12:00:00 8,5 1,9 21 11 32 18 O 1001,8 10 0,0
17.10.2017 11:00:00 8,4 1,8 21 11 32 18 O 1001,9 10 0,0
17.10.2017 10:00:00 7,5 1,6 15 8 25 14 O 1002,2 10 0,0
17.10.2017 09:00:00 6,6 1,1 11 6 32 18 O 1002,1 10 0,0
17.10.2017 08:00:00 6,4 0,9 22 12 40 21 ONO 1001,6 10 0,0
17.10.2017 07:00:00 6,6 0,8 24 13 40 21 ONO 1001,5 10 0,0
17.10.2017 06:00:00 6,8 0,9 28 15 43 23 ONO 1001,2 10 0,0
17.10.2017 05:00:00 6,9 1,0 29 16 40 21 ONO 1000,8 10 0,0
17.10.2017 04:00:00 6,8 0,9 28 15 40 21 ONO 1000,7 10 0,0

tt = Temperatura
td = dewpoint
ff = velocità del vento
fx = gusts
dd = direzione del vento
ppp = reduced air pressure
vv = visibility
rr = precipitazioni

Stazioni seguenti

WeatherPro
AMSI
MeteoEarth